DL2AKT-13 Weather Reports


time (UTC)temp
C
wind
direction
speed
KPH
gust
KPH
rain 1hr
cm
rain 24hr
cm
rain mn
cm
humidity
%
barometer
mb
20190822134711 25 45 3.2 8.0 0.00 0.00 0.00 32 1024.6
20190822133157 25 146 1.6 6.4 0.00 0.00 0.00 33 1024.7
20190822131727 25 26 3.2 12.9 0.00 0.00 0.00 35 1024.9
20190822130141 24 259 1.6 14.5 0.00 0.00 0.00 37 1025.1
20190822124644 24 140 1.6 12.9 0.00 0.00 0.00 37 1025.2
20190822123157 23 97 1.6 14.5 0.00 0.00 0.00 37 1025.2
20190822121656 23 177 12.9 19.3 0.00 0.00 0.00 37 1025.2
20190822120200 23 146 6.4 12.9 0.00 0.00 0.00 37 1025.3
20190822114603 23 121 1.6 9.7 0.00 0.00 0.00 37 1025.5
20190822113116 23 141 0.0 12.9 0.00 0.00 0.00 37 1025.7
20190822111624 23 100 1.6 8.0 0.00 0.00 0.00 36 1025.8
20190822110204 23 55 0.0 8.0 0.00 0.00 0.00 39 1025.9
20190822104603 22 92 1.6 14.5 0.00 0.00 0.00 39 1026.1
20190822103121 22 40 3.2 11.3 0.00 0.00 0.00 39 1026.1
20190822101537 22 155 1.6 9.7 0.00 0.00 0.00 41 1026.3
20190822100041 22 38 1.6 9.7 0.00 0.00 0.00 43 1026.4
20190822094603 21 60 1.6 12.9 0.00 0.00 0.00 45 1026.4
20190822093117 21 184 1.6 9.7 0.00 0.00 0.00 45 1026.6
20190822091600 21 40 6.4 14.5 0.00 0.00 0.00 44 1026.7
20190822090018 20 133 1.6 12.9 0.00 0.00 0.00 49 1026.8
20190822084534 20 128 0.0 8.0 0.00 0.00 0.00 54 1026.8
20190822083025 20 19 0.0 3.2 0.00 0.00 0.00 53 1026.9
20190822081508 19 99 0.0 3.2 0.00 0.00 0.00 58 1026.9
20190822080004 18 139 0.0 1.6 0.00 0.00 0.00 59 1027.0
20190822074702 18 136 0.0 4.8 0.00 0.00 0.00 59 1026.9
20190822073153 17 140 0.0 9.7 0.00 0.00 0.00 61 1027.0
20190822071652 17 163 0.0 9.7 0.00 0.00 0.00 61 1026.9
20190822070142 16 122 0.0 4.8 0.00 0.00 0.00 63 1026.9
20190822064652 16 121 0.0 6.4 0.00 0.00 0.00 64 1026.9
20190822063446 16 100 0.0 3.2 0.00 0.00 0.00 65 1026.9
20190822061604 15 96 0.0 3.2 0.00 0.00 0.00 66 1026.8
20190822060054 15 126 0.0 3.2 0.00 0.00 0.00 67 1026.9
20190822054720 14 122 0.0 3.2 0.00 0.00 0.00 69 1026.8
20190822053110 13 34 0.0 3.2 0.00 0.00 0.00 70 1026.8
20190822051707 14 304 0.0 3.2 0.00 0.00 0.00 69 1026.7
20190822050104 13 306 0.0 4.8 0.00 0.00 0.00 68 1026.6
20190822044605 13 305 0.0 4.8 0.00 0.00 0.00 68 1026.6
20190822043127 13 256 0.0 4.8 0.00 0.00 0.00 69 1026.6
20190822041625 13 353 0.0 3.2 0.00 0.00 0.00 68 1026.6
20190822040113 13 357 0.0 3.2 0.00 0.00 0.00 68 1026.6
20190822034544 13 4 0.0 3.2 0.00 0.00 0.00 68 1026.6
20190822033129 13 153 0.0 3.2 0.00 0.00 0.00 68 1026.6
20190822031544 13 143 0.0 3.2 0.00 0.00 0.00 67 1026.6
20190822030112 13 145 0.0 3.2 0.00 0.00 0.00 69 1026.6
20190822024608 12 69 0.0 3.2 0.00 0.00 0.00 71 1026.6
20190822023120 12 83 0.0 1.6 0.00 0.00 0.00 73 1026.8
20190822021610 12 83 0.0 0.0 0.00 0.00 0.00 72 1026.9
20190822020037 12 83 0.0 0.0 0.00 0.00 0.00 70 1027.0
20190822014545 12 83 0.0 1.6 0.00 0.00 0.00 69 1027.1
20190822013043 13 83 0.0 1.6 0.00 0.00 0.00 67 1027.0
20190822011554 13 84 0.0 4.8 0.00 0.00 0.00 67 1026.9
20190822010024 13 86 0.0 1.6 0.00 0.00 0.00 67 1027.0
20190822004548 13 86 0.0 1.6 0.00 0.00 0.00 66 1026.9
20190822003020 13 86 0.0 3.2 0.00 0.00 0.00 65 1026.9
20190822001518 13 88 0.0 3.2 0.00 0.00 0.00 65 1027.0
20190822000058 13 91 0.0 4.8 0.00 0.00 0.00 65 1027.0
20190821234518 13 63 0.0 4.8 0.00 0.00 0.00 66 1027.1
20190821233034 13 61 0.0 4.8 0.00 0.00 0.00 65 1027.2
20190821231518 13 61 0.0 1.6 0.00 0.00 0.00 65 1027.3
20190821230025 13 61 0.0 0.0 0.00 0.00 0.00 64 1027.4
20190821224527 13 61 0.0 1.6 0.00 0.00 0.00 63 1027.5
20190821223005 14 61 0.0 1.6 0.00 0.00 0.00 61 1027.5
20190821221506 15 61 0.0 1.6 0.00 0.00 0.00 60 1027.5
20190821220222 15 61 0.0 4.8 0.00 0.00 0.00 59 1027.4
20190821214716 15 86 0.0 3.2 0.00 0.00 0.00 58 1027.5
20190821213252 15 70 0.0 4.8 0.00 0.00 0.00 56 1027.4
20190821211714 16 88 0.0 6.4 0.00 0.00 0.00 55 1027.4
20190821210129 16 65 1.6 8.0 0.00 0.00 0.00 54 1027.3
20190821204633 16 66 1.6 6.4 0.00 0.00 0.00 53 1027.3
20190821203150 16 60 3.2 8.0 0.00 0.00 0.00 53 1027.3
20190821201744 16 66 1.6 8.0 0.00 0.00 0.00 52 1027.3
20190821200213 16 65 3.2 8.0 0.00 0.00 0.00 51 1027.3
20190821194654 17 63 1.6 6.4 0.00 0.00 0.00 50 1027.4
20190821193152 17 68 1.6 8.0 0.00 0.00 0.00 50 1027.3
20190821191704 17 70 1.6 4.8 0.00 0.00 0.00 48 1027.4
20190821190120 17 70 1.6 4.8 0.00 0.00 0.00 47 1027.3
20190821184646 18 71 1.6 4.8 0.00 0.00 0.00 47 1027.1
20190821183247 18 55 1.6 4.8 0.00 0.00 0.00 46 1027.0
20190821181730 19 55 1.6 6.4 0.00 0.00 0.00 44 1026.9
20190821180212 20 55 1.6 6.4 0.00 0.00 0.00 43 1026.8
20190821174652 20 55 0.0 8.0 0.00 0.03 0.00 41 1026.7
20190821173152 21 26 0.0 6.4 0.00 0.03 0.00 39 1026.7
20190821171636 21 10 1.6 6.4 0.00 0.03 0.00 39 1026.7
20190821170111 21 5 3.2 8.0 0.00 0.03 0.00 37 1026.7
20190821164740 21 2 3.2 9.7 0.00 0.05 0.00 37 1026.7
20190821163111 22 45 0.0 4.8 0.00 0.05 0.00 38 1026.8
20190821161621 22 50 0.0 9.7 0.00 0.05 0.00 39 1026.9
20190821160126 21 1 3.2 11.3 0.00 0.05 0.00 39 1027.0
20190821153114 22 19 4.8 11.3 0.00 0.10 0.00 39 1027.1
20190821151628 22 353 6.4 14.5 0.00 0.10 0.00 37 1027.0
20190821150142 22 17 1.6 12.9 0.00 0.10 0.00 38 1027.1
20190821144629 21 244 0.0 6.4 0.00 0.10 0.00 40 1027.1
20190821143115 20 348 1.6 8.0 0.00 0.10 0.00 40 1027.2
20190821141631 21 358 0.0 8.0 0.00 0.10 0.00 41 1027.2
20190821140103 21 250 0.0 4.8 0.00 0.10 0.00 41 1027.3